[[{"header":{"parameterUnit":"m.s-1","parameterCategory":1,"la1":30.2991,"la2":30.254,"lo1":-89.0895,"lo2":-89.0444,"dy":0.0017,"dx":0.0017,"nx":28,"ny":28,"refTime":"2024-07-25T03:00:00:Z","depth":0,"parameterNumber":2,"parameterNumberName":"U-component_of_WINDS"},"data":[0,0,0,0,0,0,0,0,0,0,0,0,0,0,0,0,0,0,0,0,0,0,0,0,0,0,0,0,0,0,0,0,0,0,0,0,0,0,0,0,0,0,0,0,0,0,0,0,0,0,0,0,0,0,0,0,0,0,-2.5667,-2.5667,0,-2.5714,-2.5715,-2.5715,-2.5635,-2.5632,-2.5629,-2.5626,-2.5676,-2.568,-2.5683,0,0,0,0,0,0,0,0,0,0,0,0,0,-2.5506,-2.5509,-2.5667,-2.5667,-2.5668,-2.5714,-2.5715,-2.5716,-2.5635,-2.5632,-2.5628,-2.5625,-2.5675,-2.5679,-2.5684,0,0,0,0,0,0,0,0,0,0,0,0,0,-2.5567,-2.551,-2.5667,-2.5633,-2.5631,-2.5714,-2.5715,-2.5716,-2.5636,-2.5632,-2.5627,-2.5624,-2.5673,-2.5679,-2.5684,-2.5803,0,0,-2.5702,-2.5705,0,0,0,0,0,0,0,0,-2.5563,-2.5573,-2.5638,-2.5636,-2.5633,-2.5664,-2.5676,-2.5745,-2.5637,-2.5634,-2.5626,-2.5622,-2.5675,-2.5681,-2.5699,-2.5805,-2.5807,-2.5703,-2.5706,-2.5709,-2.571,0,0,0,0,0,0,0,-2.5559,-2.557,-2.5686,-2.5639,-2.5636,-2.5616,-2.562,-2.5689,-2.5677,-2.5634,-2.5628,-2.5635,-2.5673,-2.5693,-2.5699,-2.5808,-2.5703,-2.5708,-2.5711,-2.5714,-2.6011,-2.6015,0,0,0,0,0,0,-2.5559,-2.5567,-2.5684,-2.5687,-2.5587,-2.5622,-2.5627,-2.5658,-2.5676,-2.5675,-2.5638,-2.5631,-2.5685,-2.5693,-2.5701,-2.5839,-2.5709,-2.5714,-2.5717,-2.6007,-2.6012,-2.6017,0,0,0,0,0,0,-2.5556,-2.557,-2.5682,-2.5626,-2.5638,-2.5629,-2.5666,-2.5662,-2.5681,-2.568,-2.5677,-2.5661,-2.5682,-2.5693,-2.5777,-2.5839,-2.5717,-2.5722,-2.6002,-2.6009,-2.6015,-2.6117,0,0,0,0,0,0,-2.5552,-2.557,-2.5615,-2.5627,-2.5642,-2.5759,-2.5669,-2.5665,-2.5692,-2.5682,-2.57,-2.5699,-2.568,-2.5769,-2.5783,-2.5845,-2.5727,-2.5996,-2.6005,-2.6013,-2.6108,-2.6126,-2.6142,0,0,0,0,0,-2.5546,-2.5642,-2.5617,-2.5632,-2.5698,-2.5762,-2.577,-2.5746,-2.5697,-2.5742,-2.574,-2.5698,-2.5831,-2.5779,-2.5794,-2.5858,-2.5992,-2.6002,-2.6012,-2.61,-2.6122,-2.6141,0,0,0,0,0,0,-2.5638,-2.5643,-2.5616,-2.5719,-2.5741,-2.5749,-2.5804,-2.5771,-2.5808,-2.5798,-2.5766,-2.5771,-2.5862,-2.5869,-2.5811,-2.5972,-2.5903,-2.5916,-2.5965,-2.5986,-2.6003,-2.5999,-2.5731,0,0,0,0,0,-2.567,-2.5722,-2.5724,-2.5814,-2.5827,-2.5814,-2.5841,-2.5821,-2.5842,-2.5851,-2.5856,-2.5878,-2.5924,-2.5956,-2.5998,-2.6108,-2.611,-2.616,-2.6177,-2.6191,-2.6203,-2.626,-2.6281,-2.605,-2.605,-2.6049,0,0,-2.5737,-2.5746,-2.5781,-2.5833,-2.5847,-2.5901,-2.5822,-2.5883,-2.5923,-2.586,-2.594,-2.5945,-2.5968,-2.6065,-2.6108,-2.6073,-2.6267,-2.6204,-2.6215,-2.6219,-2.6272,-2.6294,-2.6313,-2.6056,-2.6055,-2.6054,0,0,-2.5886,-2.5899,-2.5975,-2.5991,-2.6014,-2.6004,-2.6023,-2.6036,-2.6036,-2.6115,-2.6069,-2.6116,-2.6197,-2.6214,-2.6234,-2.6389,-2.6351,-2.6403,-2.6492,-2.6547,-2.6566,-2.6581,-2.6635,-2.6655,-2.6415,-2.6416,-2.6416,0,-2.5967,-2.6046,-2.6019,-2.6082,-2.6106,-2.6051,-2.6127,-2.6144,-2.618,-2.6197,-2.6158,-2.6257,-2.6269,-2.6368,-2.6406,-2.6424,-2.6443,-2.6401,-2.6565,-2.6581,-2.6595,-2.6646,-2.6667,-2.6422,-2.6421,-2.642,-2.642,0,-2.6143,-2.6199,-2.6258,-2.6293,-2.6323,-2.6393,-2.6375,-2.6409,-2.6386,-2.6381,-2.6461,-2.6473,-2.6517,-2.6539,-2.6518,-2.6636,-2.6613,-2.657,-2.6499,-2.6624,-2.6671,-2.669,-2.643,-2.6428,-2.6426,-2.6425,0,0,-2.6352,-2.6369,-2.6391,-2.6406,-2.6426,-2.6469,-2.6536,-2.6577,-2.6606,-2.6633,-2.6687,-2.6756,-2.6716,-2.6738,-2.6718,-2.6767,-2.6887,-2.6718,-2.6718,-2.6747,-2.7016,-2.7047,-2.707,-2.6862,-2.6866,-2.6869,-2.7013,0,-2.6499,-2.6614,-2.659,-2.6702,-2.6753,-2.6701,-2.6759,-2.6778,-2.6774,-2.6816,-2.6813,-2.6861,-2.6805,-2.6818,-2.6865,-2.6863,-2.694,-2.6852,-2.6911,-2.6914,-2.6906,-2.7095,-2.7129,-2.7265,-2.7032,-2.7035,-2.7037,0,-2.6686,-2.6718,-2.6836,-2.6846,-2.6866,-2.6919,-2.6954,-2.6996,-2.7015,-2.7009,-2.7034,-2.7004,-2.7069,-2.6998,-2.7087,-2.7028,-2.7051,-2.7053,-2.7058,-2.7061,-2.6982,-2.7102,-2.7308,-2.7327,-2.7066,-2.7064,-2.7062,0,-2.6824,-2.6897,-2.6976,-2.699,-2.7006,-2.7043,-2.7051,-2.7067,-2.7093,-2.7124,-2.714,-2.7179,-2.72,-2.7231,-2.7211,-2.7162,-2.7303,-2.7231,-2.7299,-2.7299,-2.733,-2.7328,-2.7541,-2.7348,-2.7347,-2.7347,-2.7347,0,-2.699,-2.7064,-2.7038,-2.7087,-2.7167,-2.7139,-2.7219,-2.7221,-2.7235,-2.7283,-2.7241,-2.7286,-2.7259,-2.7302,-2.7287,-2.7362,-2.7373,-2.7369,-2.7364,-2.7372,-2.7372,-2.7385,-2.7375,-2.7352,-2.7351,-2.735,-2.7349,0,-2.7158,-2.7144,-2.7227,-2.7234,-2.7237,-2.7296,-2.7302,-2.7346,-2.734,-2.74,-2.7413,-2.7402,-2.745,-2.7434,-2.7487,-2.7477,-2.7571,-2.7555,-2.7565,-2.756,-2.7628,-2.7621,-2.7855,-2.7884,-2.7674,-2.7676,-2.7678,0,-2.7264,-2.7319,-2.7332,-2.736,-2.7371,-2.7418,-2.7444,-2.7419,-2.7447,-2.7473,-2.7515,-2.7559,-2.7593,-2.7673,-2.7669,-2.7709,-2.7692,-2.7771,-2.7697,-2.7703,-2.7691,-2.7687,-2.7692,-2.7785,-2.7788,-2.779,-2.7791,0,-2.7454,-2.7444,-2.7483,-2.7519,-2.7551,-2.7579,-2.7603,-2.7629,-2.7605,-2.7639,-2.7687,-2.7714,-2.7766,-2.7811,-2.7846,-2.7853,-2.7818,-2.7815,-2.7832,-2.784,-2.7843,-2.784,-2.7603,-2.7809,-2.7808,-2.7806,-2.7805,-2.7805,-2.7593,-2.7638,-2.7654,-2.7699,-2.7714,-2.7737,-2.7778,-2.7776,-2.7816,-2.7857,-2.7839,-2.7895,-2.7912,-2.7955,-2.7967,-2.801,-2.7979,-2.8005,-2.8011,-2.8018,-2.8026,-2.7837,-2.8017,-2.8016,-2.8016,-2.8015,-2.8015,0,-2.7778,-2.7786,-2.7827,-2.7861,-2.7896,-2.786,-2.7884,-2.7915,-2.7964,-2.7983,-2.8017,-2.8072,-2.8114,-2.8114,-2.8153,-2.8187,-2.8172,-2.8198,-2.8195,-2.8197,-2.8052,-2.8032,-2.821,-2.821,-2.821,-2.821,-2.821,-2.821,-2.7879,-2.7954,-2.7946,-2.8027,-2.8034,-2.8088,-2.8104,-2.8125,-2.8139,-2.8202,-2.8237,-2.8236,-2.8247,-2.8286,-2.8323,-2.8322,-2.8337,-2.8369,-2.8362,-2.8227,-2.8207,-2.8189,-2.817,-2.8373,-2.8374,-2.8503,-2.8504,-2.8505]},{"header":{"parameterUnit":"m.s-1","parameterCategory":1,"la1":30.2991,"la2":30.254,"lo1":-89.0895,"lo2":-89.0444,"dy":0.0017,"dx":0.0017,"nx":28,"ny":28,"refTime":"2024-07-25T03:00:00:Z","depth":0,"parameterNumber":3,"parameterNumberName":"V-component_of_WINDS"},"data":[0,0,0,0,0,0,0,0,0,0,0,0,0,0,0,0,0,0,0,0,0,0,0,0,0,0,0,0,0,0,0,0,0,0,0,0,0,0,0,0,0,0,0,0,0,0,0,0,0,0,0,0,0,0,0,0,0,0,-1.9973,-1.9972,0,-1.9931,-1.993,-1.993,-1.9878,-1.9877,-1.9876,-1.9875,-1.9834,-1.9834,-1.9833,0,0,0,0,0,0,0,0,0,0,0,0,0,-2.0007,-2.0006,-1.9973,-1.9972,-1.9972,-1.9931,-1.993,-1.993,-1.9878,-1.9877,-1.9876,-1.9875,-1.9834,-1.9834,-1.9833,0,0,0,0,0,0,0,0,0,0,0,0,0,-1.9981,-2.0006,-1.9973,-1.9941,-1.9937,-1.9931,-1.993,-1.993,-1.9878,-1.9877,-1.9876,-1.9874,-1.9834,-1.9834,-1.9833,-1.9855,0,0,-1.9832,-1.9831,0,0,0,0,0,0,0,0,-1.9983,-1.998,-1.9946,-1.9943,-1.9939,-1.9908,-1.9927,-1.9905,-1.9878,-1.9901,-1.9875,-1.9874,-1.986,-1.9857,-1.9852,-1.9853,-1.9852,-1.9832,-1.9831,-1.9831,-1.9831,0,0,0,0,0,0,0,-1.9985,-1.9981,-1.9956,-1.9945,-1.9941,-1.9928,-1.9923,-1.9923,-1.9888,-1.9899,-1.9895,-1.989,-1.9858,-1.9853,-1.9851,-1.9851,-1.9832,-1.9831,-1.9831,-1.9831,-1.9866,-1.9867,0,0,0,0,0,0,-1.9991,-1.9983,-1.9957,-1.9955,-1.9958,-1.9929,-1.9923,-1.9919,-1.9888,-1.9882,-1.9892,-1.9888,-1.9854,-1.9851,-1.9849,-1.9871,-1.9831,-1.9831,-1.983,-1.9865,-1.9866,-1.9868,0,0,0,0,0,0,-1.9992,-1.9989,-1.9959,-1.9968,-1.9963,-1.9929,-1.9926,-1.9919,-1.9914,-1.9882,-1.9876,-1.9893,-1.9853,-1.985,-1.9854,-1.9869,-1.983,-1.983,-1.9863,-1.9865,-1.9867,-1.9917,0,0,0,0,0,0,-1.9993,-1.999,-1.9998,-1.9969,-1.9963,-1.9965,-1.9927,-1.9919,-1.9913,-1.9909,-1.9882,-1.9876,-1.9852,-1.9855,-1.9853,-1.9868,-1.983,-1.9862,-1.9864,-1.9866,-1.9914,-1.9921,-1.9926,0,0,0,0,0,-1.9995,-2.0015,-1.9999,-1.9996,-1.9972,-1.9966,-1.9962,-1.9934,-1.9915,-1.9923,-1.9902,-1.9877,-1.9868,-1.9855,-1.9853,-1.9868,-1.9861,-1.9864,-1.9866,-1.9911,-1.9919,-1.9926,0,0,0,0,0,0,-2.0048,-2.001,-1.9992,-2.0003,-1.9988,-1.9957,-1.9966,-1.9943,-1.9933,-1.9929,-1.9894,-1.9888,-1.9896,-1.9883,-1.9869,-1.9887,-1.986,-1.9863,-1.9895,-1.9903,-1.9909,-1.9912,-1.9829,0,0,0,0,0,-2.0061,-2.0058,-2.0026,-2.0039,-2.0032,-2.0,-1.9996,-1.9975,-1.9958,-1.9951,-1.9931,-1.9915,-1.9908,-1.9905,-1.9897,-1.9912,-1.9904,-1.9921,-1.9927,-1.9932,-1.9935,-1.9939,-1.9946,-1.9877,-1.9877,-1.9877,0,0,-2.0088,-2.0067,-2.0068,-2.0049,-2.0034,-2.0032,-1.9995,-1.9995,-1.9993,-1.9951,-1.9953,-1.9938,-1.9918,-1.9927,-1.9929,-1.9915,-1.9952,-1.9936,-1.994,-1.9939,-1.9943,-1.995,-1.9955,-1.9879,-1.9878,-1.9878,0,0,-2.0135,-2.012,-2.0128,-2.0114,-2.0092,-2.0071,-2.0073,-2.0045,-2.0032,-2.0033,-2.0002,-1.9999,-1.9989,-1.9975,-1.9967,-2.0008,-1.9984,-2.0006,-2.0038,-2.0043,-2.0048,-2.0053,-2.0066,-2.0072,-2.0009,-2.0009,-2.0009,0,-2.0172,-2.0167,-2.0135,-2.0136,-2.0128,-2.009,-2.0097,-2.0085,-2.0063,-2.0058,-2.0042,-2.0027,-2.0011,-2.0015,-2.0025,-2.002,-2.0021,-2.0009,-2.005,-2.0054,-2.0058,-2.0071,-2.0076,-2.0012,-2.0011,-2.0011,-2.0011,0,-2.0212,-2.0209,-2.0218,-2.0196,-2.0189,-2.0194,-2.0162,-2.0159,-2.0138,-2.0118,-2.0119,-2.0098,-2.0085,-2.0084,-2.0065,-2.0086,-2.0077,-2.0057,-2.0029,-2.0068,-2.0079,-2.0084,-2.0016,-2.0015,-2.0014,-2.0013,0,0,-2.0293,-2.0252,-2.0256,-2.0244,-2.0217,-2.0214,-2.0216,-2.0202,-2.0199,-2.0185,-2.0185,-2.0176,-2.0156,-2.0147,-2.0125,-2.013,-2.0161,-2.0108,-2.0107,-2.0118,-2.0181,-2.0197,-2.0203,-2.0146,-2.0146,-2.0147,-2.0183,0,-2.0335,-2.0336,-2.0307,-2.0316,-2.0312,-2.0274,-2.0276,-2.0259,-2.024,-2.0234,-2.0213,-2.0207,-2.0182,-2.0176,-2.0179,-2.0157,-2.0174,-2.0154,-2.0145,-2.0145,-2.015,-2.0209,-2.0225,-2.026,-2.0187,-2.0188,-2.0188,0,-2.0384,-2.0371,-2.0379,-2.035,-2.0347,-2.0349,-2.0333,-2.0328,-2.0307,-2.0293,-2.0282,-2.0256,-2.0256,-2.023,-2.0228,-2.0215,-2.021,-2.0198,-2.0199,-2.0197,-2.0169,-2.0207,-2.027,-2.0276,-2.0195,-2.0194,-2.0194,0,-2.0441,-2.0425,-2.0428,-2.0419,-2.0385,-2.0387,-2.0373,-2.0351,-2.0344,-2.033,-2.0325,-2.0311,-2.0304,-2.0294,-2.0265,-2.0249,-2.0266,-2.0238,-2.0253,-2.0254,-2.0258,-2.0258,-2.0321,-2.0256,-2.0256,-2.0256,-2.0256,0,-2.049,-2.0497,-2.0452,-2.0454,-2.046,-2.0426,-2.0432,-2.0414,-2.0395,-2.0392,-2.0359,-2.0357,-2.0319,-2.0313,-2.029,-2.0291,-2.0288,-2.0276,-2.027,-2.0279,-2.028,-2.0274,-2.0271,-2.0257,-2.0257,-2.0257,-2.0257,0,-2.0555,-2.0526,-2.0526,-2.0493,-2.0484,-2.049,-2.0461,-2.0461,-2.044,-2.0436,-2.0433,-2.04,-2.039,-2.036,-2.0344,-2.0328,-2.0336,-2.0325,-2.0343,-2.0338,-2.0355,-2.0354,-2.0416,-2.0422,-2.0354,-2.0355,-2.0355,0,-2.0588,-2.0592,-2.0559,-2.0554,-2.0541,-2.0534,-2.0526,-2.0493,-2.0486,-2.0462,-2.0464,-2.0452,-2.044,-2.0426,-2.04,-2.0386,-2.0374,-2.0397,-2.0372,-2.038,-2.0373,-2.0373,-2.0373,-2.0402,-2.0403,-2.0404,-2.0404,0,-2.065,-2.0635,-2.0625,-2.0609,-2.06,-2.0587,-2.0571,-2.0569,-2.0531,-2.0525,-2.0514,-2.0505,-2.0487,-2.0474,-2.0456,-2.0441,-2.0416,-2.0412,-2.0415,-2.0424,-2.0434,-2.0427,-2.0356,-2.0411,-2.041,-2.041,-2.041,-2.0409,-2.0699,-2.07,-2.0677,-2.0666,-2.065,-2.0636,-2.0633,-2.0611,-2.0601,-2.0584,-2.0564,-2.0555,-2.0533,-2.0506,-2.0493,-2.0485,-2.0472,-2.0476,-2.0477,-2.0478,-2.0482,-2.0435,-2.0482,-2.0481,-2.0481,-2.0481,-2.0481,0,-2.0758,-2.0741,-2.0731,-2.071,-2.0701,-2.0678,-2.0659,-2.0653,-2.0645,-2.0626,-2.0615,-2.0602,-2.0589,-2.0562,-2.0546,-2.0545,-2.0533,-2.0542,-2.0542,-2.0538,-2.0495,-2.0494,-2.0552,-2.0552,-2.0552,-2.0552,-2.0552,-2.0552,-2.0788,-2.0788,-2.077,-2.0761,-2.0744,-2.0734,-2.0725,-2.0711,-2.0696,-2.0683,-2.0672,-2.0653,-2.063,-2.0613,-2.06,-2.0592,-2.0587,-2.06,-2.0589,-2.0548,-2.0542,-2.0535,-2.0534,-2.06,-2.06,-2.0632,-2.0633,-2.0633]}]]